Time,TemperatureF,DewpointF,PressureIn,WindDirection,WindDirectionDegrees,WindSpeedMPH,WindSpeedGustMPH,Humidity,HourlyPrecipIn,Conditions,Clouds,dailyrainin,SoftwareType,DateUTC
2013-02-07 00:01:00,70.0,62.0,-100.00,North,356,4.0,11.0,77,0.00,,,0.00,,2013-02-07 10:01:00,
2013-02-07 00:11:00,70.0,62.0,-100.00,North,356,4.0,11.0,77,0.00,,,0.00,,2013-02-07 10:11:00,
2013-02-07 00:22:00,70.0,62.0,-100.00,North,356,4.0,11.0,77,0.00,,,0.00,,2013-02-07 10:22:00,
2013-02-07 00:31:00,70.0,62.0,-100.00,North,356,4.0,11.0,77,0.00,,,0.00,,2013-02-07 10:31:00,
2013-02-07 00:41:00,70.0,62.0,-100.00,NNW,339,6.0,10.0,76,0.00,,,0.00,,2013-02-07 10:41:00,
2013-02-07 01:01:00,70.0,62.0,-100.00,NNW,339,6.0,10.0,76,0.00,,,0.00,,2013-02-07 11:01:00,
2013-02-07 01:11:00,70.0,62.0,-100.00,NNW,339,6.0,10.0,76,0.00,,,0.00,,2013-02-07 11:11:00,
2013-02-07 01:22:00,70.0,62.0,-100.00,NNW,339,6.0,10.0,76,0.00,,,0.00,,2013-02-07 11:22:00,
2013-02-07 01:32:00,70.0,62.0,-100.00,NNW,339,6.0,10.0,76,0.00,,,0.00,,2013-02-07 11:32:00,
2013-02-07 01:41:00,69.0,62.0,-100.00,NNW,348,5.0,9.0,79,0.00,,,0.00,,2013-02-07 11:41:00,
2013-02-07 02:02:00,69.0,62.0,-100.00,NNW,348,5.0,9.0,79,0.00,,,0.00,,2013-02-07 12:02:00,
2013-02-07 02:11:00,69.0,62.0,-100.00,NNW,348,5.0,9.0,79,0.00,,,0.00,,2013-02-07 12:11:00,
2013-02-07 02:22:00,69.0,62.0,-100.00,NNW,348,5.0,9.0,79,0.00,,,0.00,,2013-02-07 12:22:00,
2013-02-07 02:32:00,69.0,62.0,-100.00,NNW,348,5.0,9.0,79,0.00,,,0.00,,2013-02-07 12:32:00,
2013-02-07 02:41:00,71.0,64.0,-100.00,NNE,29,6.0,11.0,79,0.00,,,0.00,,2013-02-07 12:41:00,
2013-02-07 03:02:00,71.0,64.0,-100.00,NNE,29,6.0,11.0,79,0.00,,,0.00,,2013-02-07 13:02:00,
2013-02-07 03:11:00,71.0,64.0,-100.00,NNE,29,6.0,11.0,79,0.00,,,0.00,,2013-02-07 13:11:00,
2013-02-07 03:21:00,71.0,64.0,-100.00,NNE,29,6.0,11.0,79,0.00,,,0.00,,2013-02-07 13:21:00,
2013-02-07 03:32:00,71.0,64.0,-100.00,NNE,29,6.0,11.0,79,0.00,,,0.00,,2013-02-07 13:32:00,
2013-02-07 03:41:00,70.0,62.0,-100.00,NNE,27,5.0,11.0,77,0.00,,,0.00,,2013-02-07 13:41:00,
2013-02-07 04:01:00,70.0,62.0,-100.00,NNE,27,5.0,11.0,77,0.00,,,0.00,,2013-02-07 14:01:00,
2013-02-07 04:11:00,70.0,62.0,-100.00,NNE,27,5.0,11.0,77,0.00,,,0.00,,2013-02-07 14:11:00,
2013-02-07 04:21:00,70.0,62.0,-100.00,NNE,27,5.0,11.0,77,0.00,,,0.00,,2013-02-07 14:21:00,
2013-02-07 04:32:00,70.0,62.0,-100.00,NNE,27,5.0,11.0,77,0.00,,,0.00,,2013-02-07 14:32:00,
2013-02-07 04:41:00,69.0,62.0,-100.00,NNW,334,4.0,8.0,78,0.00,,,0.00,,2013-02-07 14:41:00,
2013-02-07 05:01:00,69.0,62.0,-100.00,NNW,334,4.0,8.0,78,0.00,,,0.00,,2013-02-07 15:01:00,
2013-02-07 05:11:00,69.0,62.0,-100.00,NNW,334,4.0,8.0,78,0.00,,,0.00,,2013-02-07 15:11:00,
2013-02-07 05:22:00,69.0,62.0,-100.00,NNW,334,4.0,8.0,78,0.00,,,0.00,,2013-02-07 15:22:00,
2013-02-07 05:31:00,69.0,62.0,-100.00,NNW,334,4.0,8.0,78,0.00,,,0.00,,2013-02-07 15:31:00,
2013-02-07 05:41:00,69.0,63.0,-100.00,NNW,342,5.0,9.0,82,0.00,,,0.00,,2013-02-07 15:41:00,
2013-02-07 06:01:00,69.0,63.0,-100.00,NNW,342,5.0,9.0,82,0.00,,,0.00,,2013-02-07 16:01:00,
2013-02-07 06:11:00,69.0,63.0,-100.00,NNW,342,5.0,9.0,82,0.00,,,0.00,,2013-02-07 16:11:00,
2013-02-07 06:21:00,69.0,63.0,-100.00,NNW,342,5.0,9.0,82,0.00,,,0.00,,2013-02-07 16:21:00,
2013-02-07 06:31:00,69.0,63.0,-100.00,NNW,342,5.0,9.0,82,0.00,,,0.00,,2013-02-07 16:31:00,
2013-02-07 06:41:00,68.0,62.0,-100.00,NW,322,5.0,11.0,82,0.00,,,0.00,,2013-02-07 16:41:00,
2013-02-07 07:01:00,68.0,62.0,-100.00,NW,322,5.0,11.0,82,0.00,,,0.00,,2013-02-07 17:01:00,
2013-02-07 07:11:00,68.0,62.0,-100.00,NW,322,5.0,11.0,82,0.00,,,0.00,,2013-02-07 17:11:00,
2013-02-07 07:21:00,68.0,62.0,-100.00,NW,322,5.0,11.0,82,0.00,,,0.00,,2013-02-07 17:21:00,
2013-02-07 07:31:00,68.0,62.0,-100.00,NW,322,5.0,11.0,82,0.00,,,0.00,,2013-02-07 17:31:00,
2013-02-07 07:41:00,70.0,64.0,-100.00,NNW,346,5.0,9.0,82,0.00,,,0.00,,2013-02-07 17:41:00,
2013-02-07 08:01:00,70.0,64.0,-100.00,NNW,346,5.0,9.0,82,0.00,,,0.00,,2013-02-07 18:01:00,
2013-02-07 08:11:00,70.0,64.0,-100.00,NNW,346,5.0,9.0,82,0.00,,,0.00,,2013-02-07 18:11:00,
2013-02-07 08:23:00,70.0,64.0,-100.00,NNW,346,5.0,9.0,82,0.00,,,0.00,,2013-02-07 18:23:00,
2013-02-07 08:31:00,70.0,64.0,-100.00,NNW,346,5.0,9.0,82,0.00,,,0.00,,2013-02-07 18:31:00,
2013-02-07 08:41:00,73.0,64.0,-100.00,NNE,27,6.0,9.0,74,0.00,,,0.00,,2013-02-07 18:41:00,
2013-02-07 09:01:00,73.0,64.0,-100.00,NNE,27,6.0,9.0,74,0.00,,,0.00,,2013-02-07 19:01:00,
2013-02-07 09:11:00,73.0,64.0,-100.00,NNE,27,6.0,9.0,74,0.00,,,0.00,,2013-02-07 19:11:00,
2013-02-07 09:22:00,73.0,64.0,-100.00,NNE,27,6.0,9.0,74,0.00,,,0.00,,2013-02-07 19:22:00,
2013-02-07 09:31:00,73.0,64.0,-100.00,NNE,27,6.0,9.0,74,0.00,,,0.00,,2013-02-07 19:31:00,
2013-02-07 09:41:00,76.0,65.0,-100.00,NE,43,7.0,11.0,69,0.00,,,0.00,,2013-02-07 19:41:00,
2013-02-07 10:01:00,76.0,65.0,-100.00,NE,43,7.0,11.0,69,0.00,,,0.00,,2013-02-07 20:01:00,
2013-02-07 10:11:00,76.0,65.0,-100.00,NE,43,7.0,11.0,69,0.00,,,0.00,,2013-02-07 20:11:00,
2013-02-07 10:21:00,76.0,65.0,-100.00,NE,43,7.0,11.0,69,0.00,,,0.00,,2013-02-07 20:21:00,
2013-02-07 10:31:00,76.0,65.0,-100.00,NE,43,7.0,11.0,69,0.00,,,0.00,,2013-02-07 20:31:00,
2013-02-07 10:41:00,77.0,65.0,-100.00,ENE,75,10.0,18.0,67,0.00,,,0.00,,2013-02-07 20:41:00,
2013-02-07 11:01:00,77.0,65.0,-100.00,ENE,75,10.0,18.0,67,0.00,,,0.00,,2013-02-07 21:01:00,
2013-02-07 11:11:00,77.0,65.0,-100.00,ENE,75,10.0,18.0,67,0.00,,,0.00,,2013-02-07 21:11:00,
2013-02-07 11:21:00,77.0,65.0,-100.00,ENE,75,10.0,18.0,67,0.00,,,0.00,,2013-02-07 21:21:00,
2013-02-07 11:31:00,77.0,65.0,-100.00,ENE,75,10.0,18.0,67,0.00,,,0.00,,2013-02-07 21:31:00,
2013-02-07 11:41:00,77.0,65.0,-100.00,East,81,8.0,17.0,67,0.00,,,0.00,,2013-02-07 21:41:00,
2013-02-07 12:02:00,77.0,65.0,-100.00,East,81,8.0,17.0,67,0.00,,,0.00,,2013-02-07 22:02:00,
2013-02-07 12:11:00,77.0,65.0,-100.00,East,81,8.0,17.0,67,0.00,,,0.00,,2013-02-07 22:11:00,
2013-02-07 12:21:00,77.0,65.0,-100.00,East,81,8.0,17.0,67,0.00,,,0.00,,2013-02-07 22:21:00,
2013-02-07 12:31:00,77.0,65.0,-100.00,East,81,8.0,17.0,67,0.00,,,0.00,,2013-02-07 22:31:00,
2013-02-07 12:41:00,79.0,66.0,-100.00,East,89,11.0,15.0,64,0.00,,,0.00,,2013-02-07 22:41:00,
2013-02-07 13:01:00,79.0,66.0,-100.00,East,89,11.0,15.0,64,0.00,,,0.00,,2013-02-07 23:01:00,
2013-02-07 13:11:00,79.0,66.0,-100.00,East,89,11.0,15.0,64,0.00,,,0.00,,2013-02-07 23:11:00,
2013-02-07 13:21:00,79.0,66.0,-100.00,East,89,11.0,15.0,64,0.00,,,0.00,,2013-02-07 23:21:00,
2013-02-07 13:31:00,79.0,66.0,-100.00,East,89,11.0,15.0,64,0.00,,,0.00,,2013-02-07 23:31:00,
2013-02-07 13:41:00,78.0,65.0,-100.00,East,93,9.0,16.0,65,0.00,,,0.00,,2013-02-07 23:41:00,
2013-02-07 14:01:00,78.0,65.0,-100.00,East,93,9.0,16.0,65,0.00,,,0.00,,2013-02-08 00:01:00,
2013-02-07 14:11:00,78.0,65.0,-100.00,East,93,9.0,16.0,65,0.00,,,0.00,,2013-02-08 00:11:00,
2013-02-07 14:21:00,78.0,65.0,-100.00,East,93,9.0,16.0,65,0.00,,,0.00,,2013-02-08 00:21:00,
2013-02-07 14:31:00,78.0,65.0,-100.00,East,93,9.0,16.0,65,0.00,,,0.00,,2013-02-08 00:31:00,
2013-02-07 14:41:00,80.0,65.0,-100.00,East,85,8.0,14.0,61,0.00,,,0.00,,2013-02-08 00:41:00,
2013-02-07 15:41:00,76.0,64.0,-100.00,East,94,14.0,19.0,66,0.00,,,0.00,,2013-02-08 01:41:00,
2013-02-07 16:01:00,76.0,64.0,-100.00,East,94,14.0,19.0,66,0.00,,,0.00,,2013-02-08 02:01:00,
2013-02-07 16:11:00,76.0,64.0,-100.00,East,94,14.0,19.0,66,0.00,,,0.00,,2013-02-08 02:11:00,
2013-02-07 16:21:00,76.0,64.0,-100.00,East,94,14.0,19.0,66,0.00,,,0.00,,2013-02-08 02:21:00,
2013-02-07 16:31:00,76.0,64.0,-100.00,East,94,14.0,19.0,66,0.00,,,0.00,,2013-02-08 02:31:00,
2013-02-07 16:41:00,78.0,70.0,-100.00,ENE,72,5.0,20.0,76,0.00,,,0.00,,2013-02-08 02:41:00,
2013-02-07 17:01:00,78.0,70.0,-100.00,ENE,72,5.0,20.0,76,0.00,,,0.00,,2013-02-08 03:01:00,
2013-02-07 17:12:00,78.0,70.0,-100.00,ENE,72,5.0,20.0,76,0.00,,,0.00,,2013-02-08 03:12:00,
2013-02-07 17:22:00,78.0,70.0,-100.00,ENE,72,5.0,20.0,76,0.00,,,0.00,,2013-02-08 03:22:00,
2013-02-07 17:31:00,78.0,70.0,-100.00,ENE,72,5.0,20.0,76,0.00,,,0.00,,2013-02-08 03:31:00,
2013-02-07 17:41:00,76.0,66.0,-100.00,ENE,76,7.0,12.0,71,0.00,,,0.00,,2013-02-08 03:41:00,
2013-02-07 18:01:00,76.0,66.0,-100.00,ENE,76,7.0,12.0,71,0.00,,,0.00,,2013-02-08 04:01:00,
2013-02-07 18:11:00,76.0,66.0,-100.00,ENE,76,7.0,12.0,71,0.00,,,0.00,,2013-02-08 04:11:00,
2013-02-07 18:21:00,76.0,66.0,-100.00,ENE,76,7.0,12.0,71,0.00,,,0.00,,2013-02-08 04:21:00,
2013-02-07 18:31:00,76.0,66.0,-100.00,ENE,76,7.0,12.0,71,0.00,,,0.00,,2013-02-08 04:31:00,
2013-02-07 18:41:00,74.0,66.0,-100.00,East,88,8.0,11.0,75,0.00,,,0.00,,2013-02-08 04:41:00,
2013-02-07 19:02:00,74.0,66.0,-100.00,East,88,8.0,11.0,75,0.00,,,0.00,,2013-02-08 05:02:00,
2013-02-07 19:11:00,74.0,66.0,-100.00,East,88,8.0,11.0,75,0.00,,,0.00,,2013-02-08 05:11:00,
2013-02-07 19:22:00,74.0,66.0,-100.00,East,88,8.0,11.0,75,0.00,,,0.00,,2013-02-08 05:22:00,
2013-02-07 19:31:00,74.0,66.0,-100.00,East,88,8.0,11.0,75,0.00,,,0.00,,2013-02-08 05:31:00,
2013-02-07 19:41:00,73.0,65.0,-100.00,NE,55,4.0,10.0,77,0.00,,,0.00,,2013-02-08 05:41:00,
2013-02-07 20:01:00,73.0,65.0,-100.00,NE,55,4.0,10.0,77,0.00,,,0.00,,2013-02-08 06:01:00,
2013-02-07 20:11:00,73.0,65.0,-100.00,NE,55,4.0,10.0,77,0.00,,,0.00,,2013-02-08 06:11:00,
2013-02-07 20:21:00,73.0,65.0,-100.00,NE,55,4.0,10.0,77,0.00,,,0.00,,2013-02-08 06:21:00,
2013-02-07 20:31:00,73.0,65.0,-100.00,NE,55,4.0,10.0,77,0.00,,,0.00,,2013-02-08 06:31:00,
2013-02-07 20:41:00,73.0,66.0,-100.00,NE,45,4.0,9.0,78,0.00,,,0.00,,2013-02-08 06:41:00,
2013-02-07 21:01:00,73.0,66.0,-100.00,NE,45,4.0,9.0,78,0.00,,,0.00,,2013-02-08 07:01:00,
2013-02-07 21:11:00,73.0,66.0,-100.00,NE,45,4.0,9.0,78,0.00,,,0.00,,2013-02-08 07:11:00,
2013-02-07 21:21:00,73.0,66.0,-100.00,NE,45,4.0,9.0,78,0.00,,,0.00,,2013-02-08 07:21:00,
2013-02-07 21:31:00,73.0,66.0,-100.00,NE,45,4.0,9.0,78,0.00,,,0.00,,2013-02-08 07:31:00,
2013-02-07 21:41:00,73.0,66.0,-100.00,NE,46,5.0,7.0,79,0.00,,,0.00,,2013-02-08 07:41:00,
2013-02-07 22:01:00,73.0,66.0,-100.00,NE,46,5.0,7.0,79,0.00,,,0.00,,2013-02-08 08:01:00,
2013-02-07 22:11:00,73.0,66.0,-100.00,NE,46,5.0,7.0,79,0.00,,,0.00,,2013-02-08 08:11:00,
2013-02-07 22:21:00,73.0,66.0,-100.00,NE,46,5.0,7.0,79,0.00,,,0.00,,2013-02-08 08:21:00,
2013-02-07 22:32:00,73.0,66.0,-100.00,NE,46,5.0,7.0,79,0.00,,,0.00,,2013-02-08 08:32:00,
2013-02-07 22:41:00,72.0,65.0,-100.00,North,10,4.0,7.0,80,0.00,,,0.00,,2013-02-08 08:41:00,
2013-02-07 23:03:00,72.0,65.0,-100.00,North,10,4.0,7.0,80,0.00,,,0.00,,2013-02-08 09:03:00,
2013-02-07 23:11:00,72.0,65.0,-100.00,North,10,4.0,7.0,80,0.00,,,0.00,,2013-02-08 09:11:00,
2013-02-07 23:21:00,72.0,65.0,-100.00,North,10,4.0,7.0,80,0.00,,,0.00,,2013-02-08 09:21:00,
2013-02-07 23:31:00,72.0,65.0,-100.00,North,10,4.0,7.0,80,0.00,,,0.00,,2013-02-08 09:31:00,
2013-02-07 23:41:00,71.0,65.0,-100.00,North,353,4.0,8.0,80,0.00,,,0.00,,2013-02-08 09:41:00,